This is the latest recevied weather packets stored in our database for station/object EFHK. If no packets are shown the sender has not sent any weather packets the latest 10 day(s).
| Time | Temp. | Humidity | Pressure | Rain* | Wind** | Luminosity | Snow |
|---|---|---|---|---|---|---|---|
| 1777635805 | 18.89° C | 32% | 1018 hPa | - | - | - | - |
| 1777635204 | 18.89° C | 32% | 1018 hPa | - | - | - | - |
| 1777634601 | 18.89° C | 32% | 1018 hPa | - | - | - | - |
| 1777634007 | 20° C | 34% | 1018 hPa | - | - | - | - |
| 1777633405 | 20° C | 34% | 1018 hPa | - | - | - | - |
| 1777632804 | 20° C | 34% | 1018 hPa | - | - | - | - |
| 1777632199 | 17.78° C | 34% | 1019 hPa | - | - | - | - |
| 1777631605 | 17.78° C | 34% | 1019 hPa | - | - | - | - |
| 1777631004 | 17.78° C | 34% | 1019 hPa | - | - | - | - |
| 1777630404 | 16.67° C | 42% | 1019 hPa | - | - | - | - |
| 1777629803 | 16.67° C | 42% | 1019 hPa | - | - | - | - |
| 1777629201 | 16.67° C | 42% | 1019 hPa | - | - | - | - |
| 1777628604 | 15.56° C | 44% | 1019 hPa | - | - | - | - |
| 1777628003 | 15.56° C | 44% | 1019 hPa | - | - | - | - |
| 1777627401 | 15.56° C | 44% | 1019 hPa | - | - | - | - |
| 1777626802 | 15.56° C | 41% | 1020 hPa | - | - | - | - |
| 1777626208 | 15.56° C | 41% | 1020 hPa | - | - | - | - |
| 1777625604 | 15.56° C | 41% | 1020 hPa | - | - | - | - |
| 1777625001 | 16.67° C | 42% | 1020 hPa | - | - | - | - |
| 1777624402 | 16.67° C | 42% | 1020 hPa | - | - | - | - |
| 1777623799 | 16.67° C | 42% | 1020 hPa | - | - | - | - |
| 1777623202 | 15.56° C | 44% | 1020 hPa | - | - | - | - |
| 1777622602 | 15.56° C | 44% | 1020 hPa | - | - | - | - |
| 1777622000 | 15.56° C | 44% | 1020 hPa | - | - | - | - |
| 1777621401 | 15° C | 51% | 1020 hPa | - | - | - | - |
* Rain since midnight (hover to see other rain measurements)
** Current wind speed in m/s (hover to see current wind gust speed)